When you browse on this site, cookies collect data to enhance your experience and personalize the content and advertising you see.
Visit our Privacy Policy to learn more. By continuing to use the site, you agree to this use of cookies and data.

Hourly Weather La Rioja

Today, 8 July, Wednesday

Time Temperature Precipitation Wind Pressure Humidity
00:00 +6°C° 0 mm 1 mps 717 mmHg 76%
01:00 +6°C° 0 mm 1 mps 716 mmHg 77%
02:00 +6°C° 0 mm 1 mps 716 mmHg 79%
03:00 +6°C° 0 mm 1 mps 715 mmHg 78%
04:00 +5°C° 0 mm 1 mps 715 mmHg 78%
05:00 +5°C° 0 mm 1 mps 714 mmHg 78%
06:00 +6°C° 0 mm 1 mps 714 mmHg 76%
07:00 +6°C° 0 mm 1 mps 715 mmHg 73%
08:00 +6°C° 0 mm 1 mps 715 mmHg 70%
09:00 +9°C° 0 mm 1 mps 714 mmHg 62%
10:00 +11°C° 0 mm 1 mps 714 mmHg 53%
11:00 +13°C° 0 mm 1 mps 714 mmHg 44%
12:00 +14°C° 0 mm 1 mps 714 mmHg 41%
13:00 +16°C° 0 mm 1 mps 713 mmHg 38%
14:00 +18°C° 0 mm 1 mps 713 mmHg 35%
15:00 +18°C° 0 mm 1 mps 713 mmHg 35%
16:00 +18°C° 0 mm 1 mps 713 mmHg 35%
17:00 +18°C° 0 mm 1 mps 713 mmHg 35%
18:00 +15°C° 0 mm 2 mps 714 mmHg 42%
19:00 +12°C° 0 mm 3 mps 715 mmHg 49%
20:00 +10°C° 0 mm 4 mps 716 mmHg 55%
21:00 +9°C° 0 mm 3 mps 716 mmHg 61%
22:00 +9°C° 0 mm 3 mps 717 mmHg 67%
23:00 +8°C° 0 mm 2 mps 717 mmHg 72%

Tomorrow, 9 July, Thursday

Time Temperature Precipitation Wind Pressure Humidity
00:00 +7°C° 0 mm 2 mps 717 mmHg 73%
01:00 +7°C° 0 mm 2 mps 717 mmHg 75%
02:00 +7°C° 0 mm 2 mps 717 mmHg 76%
03:00 +6°C° 0 mm 2 mps 717 mmHg 77%
04:00 +6°C° 0 mm 2 mps 717 mmHg 78%
05:00 +6°C° 0 mm 2 mps 717 mmHg 79%
06:00 +6°C° 0 mm 2 mps 717 mmHg 79%
07:00 +6°C° 0 mm 2 mps 718 mmHg 79%
08:00 +6°C° 0 mm 2 mps 718 mmHg 79%
09:00 +8°C° 0 mm 2 mps 717 mmHg 71%
10:00 +10°C° 0 mm 2 mps 717 mmHg 62%
11:00 +12°C° 0 mm 2 mps 717 mmHg 53%
12:00 +13°C° 0 mm 2 mps 716 mmHg 51%
13:00 +14°C° 0 mm 2 mps 715 mmHg 49%
14:00 +15°C° 0 mm 2 mps 714 mmHg 47%
15:00 +15°C° 0 mm 1 mps 714 mmHg 48%
16:00 +15°C° 0 mm 1 mps 713 mmHg 48%
17:00 +15°C° 0 mm 1 mps 713 mmHg 49%
18:00 +13°C° 0 mm 1 mps 712 mmHg 54%
19:00 +12°C° 0 mm 1 mps 712 mmHg 59%
20:00 +10°C° 0 mm 1 mps 711 mmHg 64%
21:00 +10°C° 0 mm 1 mps 711 mmHg 66%
22:00 +9°C° 0 mm 1 mps 711 mmHg 67%
23:00 +8°C° 0 mm 0 mps 710 mmHg 69%

Day after tomorrow, 10 July, Friday

Time Temperature Precipitation Wind Pressure Humidity
00:00 +8°C° 0 mm 0 mps 710 mmHg 70%
01:00 +8°C° 0 mm 1 mps 709 mmHg 70%
02:00 +8°C° 0 mm 1 mps 709 mmHg 71%
03:00 +8°C° 0 mm 1 mps 709 mmHg 72%
04:00 +8°C° 0 mm 1 mps 708 mmHg 74%
05:00 +7°C° 0 mm 1 mps 708 mmHg 75%
06:00 +8°C° 0 mm 1 mps 708 mmHg 72%
07:00 +8°C° 0 mm 1 mps 709 mmHg 69%
08:00 +9°C° 0 mm 1 mps 709 mmHg 66%
09:00 +12°C° 0 mm 2 mps 710 mmHg 58%
10:00 +14°C° 0 mm 2 mps 710 mmHg 50%
11:00 +17°C° 0 mm 2 mps 711 mmHg 41%
12:00 +18°C° 0 mm 2 mps 710 mmHg 40%
13:00 +19°C° 0 mm 2 mps 710 mmHg 38%
14:00 +20°C° 0 mm 2 mps 710 mmHg 36%
15:00 +19°C° 0 mm 2 mps 711 mmHg 38%
16:00 +18°C° 0 mm 2 mps 711 mmHg 41%
17:00 +17°C° 0 mm 2 mps 711 mmHg 43%
18:00 +16°C° 0 mm 2 mps 712 mmHg 48%
19:00 +14°C° 0 mm 2 mps 713 mmHg 52%
20:00 +12°C° 0 mm 2 mps 714 mmHg 57%
21:00 +12°C° 0 mm 2 mps 715 mmHg 60%
22:00 +12°C° 0 mm 1 mps 716 mmHg 64%
23:00 +11°C° 0 mm 1 mps 716 mmHg 67%

11 July, Saturday

Time Temperature Precipitation Wind Pressure Humidity
00:00 +11°C° 0 mm 1 mps 716 mmHg 70%
01:00 +10°C° 0 mm 1 mps 716 mmHg 74%
02:00 +9°C° 0 mm 1 mps 715 mmHg 78%
03:00 +9°C° 0 mm 1 mps 715 mmHg 80%
04:00 +8°C° 0 mm 1 mps 714 mmHg 82%
05:00 +7°C° 0 mm 0 mps 714 mmHg 83%
06:00 +8°C° 0 mm 1 mps 713 mmHg 80%
07:00 +9°C° 0 mm 1 mps 713 mmHg 77%
08:00 +10°C° 0 mm 1 mps 713 mmHg 74%
09:00 +12°C° 0 mm 1 mps 713 mmHg 65%
10:00 +14°C° 0 mm 1 mps 713 mmHg 55%
11:00 +18°C° 0 mm 1 mps 713 mmHg 45%
12:00 +19°C° 0 mm 1 mps 712 mmHg 42%
13:00 +20°C° 0 mm 1 mps 712 mmHg 40%
14:00 +20°C° 0 mm 2 mps 711 mmHg 37%
15:00 +20°C° 0 mm 1 mps 711 mmHg 39%
16:00 +20°C° 0 mm 1 mps 711 mmHg 40%
17:00 +20°C° 0 mm 1 mps 711 mmHg 42%
18:00 +18°C° 0 mm 1 mps 711 mmHg 49%
19:00 +15°C° 0 mm 1 mps 711 mmHg 55%
20:00 +13°C° 0 mm 1 mps 711 mmHg 62%
21:00 +12°C° 0 mm 1 mps 711 mmHg 65%
22:00 +12°C° 0 mm 1 mps 711 mmHg 68%
23:00 +12°C° 0 mm 1 mps 712 mmHg 72%

12 July, Sunday

Time Temperature Precipitation Wind Pressure Humidity
00:00 +11°C° 0 mm 1 mps 711 mmHg 74%
01:00 +11°C° 0 mm 1 mps 711 mmHg 76%
02:00 +10°C° 0 mm 1 mps 711 mmHg 78%
03:00 +10°C° 0 mm 1 mps 710 mmHg 78%
04:00 +10°C° 0 mm 1 mps 710 mmHg 79%
05:00 +10°C° 0 mm 1 mps 710 mmHg 79%
06:00 +10°C° 0 mm 1 mps 710 mmHg 77%
07:00 +10°C° 0 mm 1 mps 710 mmHg 75%
08:00 +10°C° 0 mm 1 mps 711 mmHg 74%
09:00 +13°C° 0 mm 1 mps 711 mmHg 64%
10:00 +16°C° 0 mm 2 mps 711 mmHg 54%
11:00 +19°C° 0 mm 2 mps 712 mmHg 44%
12:00 +20°C° 0 mm 2 mps 711 mmHg 42%
13:00 +21°C° 0 mm 2 mps 710 mmHg 39%
14:00 +23°C° 0 mm 2 mps 710 mmHg 37%
15:00 +23°C° 0 mm 1 mps 710 mmHg 39%
16:00 +22°C° 0 mm 1 mps 710 mmHg 40%
17:00 +20°C° 0 mm 0 mps 709 mmHg 42%
18:00 +20°C° 0 mm 1 mps 710 mmHg 48%
19:00 +18°C° 0 mm 1 mps 710 mmHg 54%
20:00 +15°C° 0 mm 1 mps 710 mmHg 60%
21:00 +14°C° 0 mm 1 mps 711 mmHg 63%
22:00 +14°C° 0 mm 1 mps 711 mmHg 66%
23:00 +12°C° 0 mm 0 mps 711 mmHg 69%

13 July, Monday

Time Temperature Precipitation Wind Pressure Humidity
00:00 +11°C° 0 mm 0 mps 711 mmHg 70%
01:00 +12°C° 0 mm 1 mps 711 mmHg 71%
02:00 +12°C° 0 mm 1 mps 711 mmHg 73%
03:00 +11°C° 0 mm 1 mps 712 mmHg 74%
04:00 +11°C° 0 mm 1 mps 712 mmHg 74%
05:00 +11°C° 0 mm 1 mps 712 mmHg 75%
06:00 +11°C° 0 mm 1 mps 713 mmHg 74%
07:00 +12°C° 0 mm 1 mps 714 mmHg 73%
08:00 +12°C° 0 mm 1 mps 714 mmHg 72%
09:00 +15°C° 0 mm 1 mps 715 mmHg 64%
10:00 +17°C° 0 mm 2 mps 716 mmHg 57%
11:00 +20°C° 0 mm 2 mps 717 mmHg 49%
12:00 +20°C° 0 mm 2 mps 717 mmHg 49%
13:00 +21°C° 0 mm 2 mps 716 mmHg 49%
14:00 +21°C° 0 mm 2 mps 716 mmHg 49%
15:00 +21°C° 0 mm 2 mps 716 mmHg 50%
16:00 +21°C° 0 mm 2 mps 716 mmHg 52%
17:00 +21°C° 0 mm 2 mps 716 mmHg 53%
18:00 +19°C° 0 mm 2 mps 716 mmHg 59%
19:00 +17°C° 0 mm 2 mps 717 mmHg 64%
20:00 +16°C° 0 mm 2 mps 717 mmHg 70%
21:00 +15°C° 0 mm 2 mps 717 mmHg 70%
22:00 +14°C° 0 mm 2 mps 718 mmHg 69%
23:00 +13°C° 0 mm 2 mps 718 mmHg 69%
Show more